STARLINK-1236 (45191 NORAD) Tracking and Keplerian Element Data

This shows tracking and keplerian element data for the satellite.

Feedback or suggestion? Click here.




ElementValue
Catalog45191
NameSTARLINK-1236
Epoch Orbit672
Epoch Day87.91667824
Epoch Year2020
RAAN80.7221
Inclination53.0047
Eccentricity0.0001589
Argument of Perigee55.2214
Mean Anonmoly229.7093
Mean Motion15.13863636
Decay Rate-0.00052155
L11 45191U 20012P 20087.91667824 -.00052155 00000-0 -28543-2 0 9999
L22 45191 53.0047 80.7221 0001589 55.2214 229.7093 15.13863636 6722

Live tracking and technical data element details for STARLINK-1236 (NORAD 45191). STARLINK-1236 can be tracked NOW for your location showing map with azimuth and elevation plus other details from your city location.

Track the satellite on the map from your city or location and see movement details for azimuth, elevation, latitude, longitude, range, height, and movement on the map or in text.







IsCatalogInMostPopularTable: catalog: 45191, numindb: 8
Update: records affected: 1



GetName: 45191 STARLINK-1236

Hit Count: updated at: Tue, 31 Mar 2020 13:52:21 GMT